Regional Weather Roundup
Issued by NWS Newport/Morehead, NC

Current Version | Previous Version | Graphics & Text | Print | Product List | Glossary Off
Versions: 1 2 3 4 5 6 7 8 9 10 11 12 13 14 15 16 17 18 19 20 21 22 23 24 25 26 27 28 29 30 31 32 33 34 35 36 37 38 39 40 41 42 43 44 45 46 47 48 49 50

000
ASUS42 KMHX 180612
RWRMHX
WEATHER ROUNDUP FOR EASTERN NORTH CAROLINA
NATIONAL WEATHER SERVICE NEWPORT/MOREHEAD CITY NC
200 AM EDT SAT APR 18 2015

NOTE: "FAIR" INDICATES FEW OR NO CLOUDS BELOW 12,000 FEET
WITH NO SIGNIFICANT WEATHER AND/OR OBSTRUCTIONS TO VISIBILITY

NCZ015>017-031-032-045>047-102-103-180700-
NORTH COAST

CITY           SKY/WX    TMP DP  RH WIND       PRES   REMARKS
EDENTON        FAIR      63  62  94 S3        29.99F
ELIZABETH CITY FAIR      64  62  93 S5        29.99F
KITTY HAWK     CLOUDY    65  63  94 CALM      29.98F
MANTEO         MOCLDY    64  63  97 CALM      29.99F

$$

NCZ045>047-081-094-103-104-180700-
CENTRAL COAST

CITY           SKY/WX    TMP DP  RH WIND       PRES   REMARKS
FRISCO         FAIR      62  60  93 E3        29.98F
SWANQUARTER      N/A     66 N/A N/A CALM      29.94F

$$

NCZ095-097-098-100-101-180700-
SOUTHERN COAST

CITY           SKY/WX    TMP DP  RH WIND       PRES   REMARKS
BEAUFORT       FAIR      65  64  97 CALM      29.98F
CEDAR ISLAND     N/A     66 N/A N/A CALM      30.00F
JACKSONVILLE   FAIR      64  63  96 CALM      29.98F
PINEY ISLAND   FAIR     N/A N/A N/A W3        29.97F
WILMINGTON     MOCLDY    66  65  96 CALM      29.97F


$$

NCZ011>013-027>030-043-044-078>080-089-090>093-098-180700-
COASTAL PLAIN

CITY           SKY/WX    TMP DP  RH WIND       PRES   REMARKS
AHOSKIE        FAIR      61  60  97 CALM      29.99F FOG
CLINTON        FAIR      66  66 100 CALM      30.00F
ELIZABETHTOWN  FAIR      66  66 100 CALM      30.00S
GOLDSBORO      CLOUDY    66  64  94 CALM      29.97F
GREENVILLE     FAIR      64  63  94 CALM      30.00F
HAVELOCK       FAIR      64  62  93 CALM      29.99F
KENANSVILLE    MOCLDY    65  64  96 CALM      30.00F
KINSTON        MOCLDY    64  63  95 CALM      30.00F
NEW BERN       FAIR      64  62  93 CALM      29.99F
RICHLANDS      FAIR      63  59  88 CALM      30.00S
ROCKY MOUNT    FAIR      63  63 100 CALM      29.99F FOG
WASHINGTON     FAIR      64  63  95 CALM      29.99F
WHITEVILLE     LGT RAIN  65  64  96 CALM      29.99F

$$

AMZ130-135-150-152-154-156-158-170-250-252-270-ANZ085-086-088-633-658-670-180700-
MARINE OBSERVATIONS

STATION/POSITION TIME  TEMP    WIND        PRES    WAVE   SWELL
                       AIR SEA DIR/SP/G            HT/PER HT/PER
                 (UTC) (F)     (DEG/KT/KT) (MB)    (FT/S) (FT/S)
CHESAPEAKE LIGHT 0600   63     220/ 13/ 13 1015.5
64 E VA BEACH    0550   59 55  210/  6/  8 1015.2    4/ 7   3/ 7
DUCK             0500   63 53  200/  5/  6 1015.0
2 E DUCK         0511      53                N/A     3/10   2/11
10 NE DUCK       NOT AVBL
OREGON INLET     0500   59 61  150/  1/  2 1016.0
HATTERAS CG      0500   66 67   90/  2/  3 1015.5
DIAMOND BUOY     0550   72 74  170/  2/  4 1015.3    5/ 8   5/ 8
CAPE LOOKOUT     0600   68        CALM     1014.7
BEAUFORT LAB     0500   66 63  360/  2/  3 1014.7
27 SE WRIGHTSVLE 0500   70 72  130/  8/ 10   N/A
5 SE WRIGHTSVLE  0500   64 63  350/  4/  4 1015.6
225 S CAPE HAT   0550   72 72  260/  4/  6 1014.8    5/ 8   5/ 8
41 SE CHARLESTON 0550   71 74  360/  6/  8 1014.4    4/ 8   3/ 8

$$


USA.gov is the U.S. government's official web portal to all federal, state and local government web resources and services.